Location: Madden
(51.3728°N, 114.3297°W)
Time: 23:01:21
(UTC+00:00)

ITUPSAT 1 - Pass Details

Date: 11 December 2023
Orbit: 696 x 707 km, 98.5° (Epoch: 27 February)

Event Time Altitude Azimuth Distance (km) Brightness Sun altitude
Rises 14:24:31 0° 107° (ESE) 3,102 ? -9.9°
Reaches altitude 10° 14:27:49 10° 82° (E) 2,187 ? -9.4°
Maximum altitude 14:30:13 14° 52° (NE) 1,930 ? -9.1°
Drops below altitude 10° 14:32:37 10° 22° (NNE) 2,191 ? -8.7°
Sets 14:35:54 0° 358° (N) 3,113 ? -8.3°
